Flag for U.S.A. Weather past 2 weeks in Cocoa Beach, Florida, U.S.A.

Now
67 °F

Clear.


Feels Like: 67 °F
Forecast: 64 / 74 °F
Wind: 7 mph from East

Location: Cocoa / Patrick Air Force Base

Current Time: Mar 2, 2015 at 10:13:40 PM

Latest Report: Mar 2, 2015 at 9:58 PM


Visibility: 10 mi

Pressure: 30.25 "Hg

Humidity: 97%

Dew point: 66 °F

Location of Cocoa BeachLocation

Historic Weather in Cocoa Beach — Graph

°F

Cocoa Beach temperature yesterday

Maximum temperature yesterday: 74 °F (at 10:58 AM)
Minimum temperature yesterday: 67 °F (at 4:58 AM)
Average temperature yesterday: 69 °F

Past Weeks' High & Low Weather Summary

 TemperatureHumidityPressure
High82 °F (Feb 23, 3:58 PM)100% (Feb 18, 2:03 AM)30.44 "Hg (Feb 18, 2:03 AM)
Low38 °F (Feb 20, 6:58 AM)25% (Feb 19, 12:58 PM)29.71 "Hg (Feb 26, 3:58 AM)
Average63 °F80%30.14 "Hg
* Reported Feb 15 8:58 PM — Mar 2 8:58 PM, Cocoa Beach, Weather by CustomWeather, © 2015

Note: Actual official high and low records may vary slightly from our data, if they occured in-between our weather recording intervals... More about our weather records

Advertising

Cocoa Beach weather history for previous 24 hours

 ConditionsComfort  
Time TempWeatherWind HumidityBarometerVisibility
8:58 PM
Mon, Mar 2
67 °FClear.7 mph97%30.24 "Hg10 mi
7:58 PM66 °FClear.7 mph97%30.23 "Hg10 mi
6:58 PM65 °FClear.6 mph98%30.23 "Hg10 mi
5:58 PM66 °FSunny.8 mph94%30.23 "Hg10 mi
4:58 PM67 °FSunny.14 mph92%30.23 "Hg10 mi
3:58 PM68 °FSunny.12 mph91%30.23 "Hg10 mi
2:58 PM69 °FSunny.10 mph90%30.23 "Hg10 mi
1:58 PM69 °FSunny.12 mph92%30.25 "Hg10 mi
12:58 PM68 °FSunny.9 mph91%30.28 "Hg10 mi
11:58 AM69 °FSunny.2 mph96%30.30 "Hg10 mi
11:03 AM66 °FFog.3 mph100%30.31 "Hg1 mi
10:58 AM66 °FFog.3 mph100%30.32 "Hg1 mi
9:58 AM64 °FFog.3 mph100%30.31 "Hg0 mi
8:58 AM63 °FFog.6 mph100%30.32 "Hg0 mi
7:58 AM63 °FFog.6 mph100%30.31 "Hg0 mi
6:58 AM63 °FFog.6 mph100%30.30 "Hg0 mi
5:58 AM64 °FFog.5 mph100%30.30 "Hg1 mi
4:58 AM64 °FFog.3 mph100%30.28 "Hg1 mi
3:58 AM64 °FFog.6 mph99%30.28 "Hg1 mi
2:58 AM64 °FFog.7 mph99%30.28 "Hg1 mi
1:58 AM65 °FFog.7 mph99%30.30 "Hg1 mi
12:58 AM67 °FFog.7 mph100%30.31 "Hg5 mi
12:03 AM66 °FFog.5 mph100%30.30 "Hg2 mi
10:58 PM
Sun, Mar 1
68 °FFog.5 mph99%30.32 "Hg5 mi
Weather by CustomWeather, © 2015

See weather overviewHow to use our weather pages